Location: Newark
(43.2333°N, 2.8603°E)
Time: 12:31:51
(UTC+00:00)

Hubble Space Telescope - Visible Passes

Search period start: 19 November 2019 00:00
Search period end: 29 November 2019 00:00
Orbit: 536 x 540 km, 28.5° (Epoch: 17 November)

Date Brightness Start Highest point End Pass type
(mag) Time Alt. Az. Time Alt. Az. Time Alt. Az.
24 Nov 3.6 17:14:06 10° S 17:14:15 10° S 17:14:25 10° S visible
25 Nov 3.6 17:03:01 10° S 17:03:30 10° S 17:04:00 10° S visible
26 Nov 3.7 16:52:26 10° S 16:52:46 10° S 16:53:06 10° S visible
